Location: Santa Barbara
(34.4500°N, 119.7700°W)
Time: 19:28:33
(UTC-08:00)

Envisat - Pass Details

Date: 24 October 2019
Orbit: 764 x 766 km, 98.1° (Epoch: 21 November)

Event Time Altitude Azimuth Distance (km) Brightness Sun altitude
Rises 19:38:17 0° 183° (S) 3,216 6.3 -18.0°
Reaches altitude 10° 19:40:41 10° 190° (S) 2,294 5.6 -18.5°
Maximum altitude 19:45:27 42° 261° (W) 1,081 4.3 -19.5°
Drops below altitude 10° 19:50:16 10° 332° (NNW) 2,307 5.8 -20.5°
Sets 19:52:42 0° 340° (NNW) 3,237 6.5 -21.0°
